Weather History for KOSH - May, 2014

Change the Weather History Date:

Friday, May 2, 2014

  Actual Average Record
Temperature  
Mean Temperature 48 °F -  
Max Temperature 52 °F 62 °F 90 °F (1959)
Min Temperature 45 °F 40 °F 26 °F (1950)
Degree Days  
Heating Degree Days 16    
Moisture  
Dew Point 41 °F    
Average Humidity 81    
Maximum Humidity 96    
Minimum Humidity 63    
Precipitation  
Precipitation 0.04 in - - ()
Sea Level Pressure  
Sea Level Pressure 29.72 in    
Wind  
Wind Speed 7 mph (WSW)    
Max Wind Speed 12 mph    
Max Gust Speed -    
Visibility 10 miles    
Events Rain    
Averages and records for this station are not official NWS values.
T = Trace of Precipitation, MM = Missing Value Source: NWS Daily Summary

Daily Weather History Graph

Daily Weather History Graph

Search for Another Location

Airport or City:

Trip Planner

Search our weather history database for the weather conditions in past years. The results will help you decide how hot, cold, wet, or windy it might be!

Date:

Astronomy

May. 02, 2014 Rise Set
Actual Time 5:44 AM CDT 7:58 PM CDT
Civil Twilight 5:12 AM CDT 8:30 PM CDT
Nautical Twilight 4:33 AM CDT 9:10 PM CDT
Astronomical Twilight 3:49 AM CDT 9:53 PM CDT
Moon 8:19 AM CDT (5/2) 11:22 PM CDT (5/2)
Length of Visible Light 15h 17m
Length of Day
14h 14m
Waxing Crescent, 12% of the Moon is Illuminated
May 2
Waxing Crescent
May 6
First Quarter
May 14
Full
May 21
Last Quarter
May 28
New

Hourly Weather History & Observations

Time (CDT) Temp. Windchill Dew Point Humidity Pressure Visibility Wind Dir Wind Speed Gust Speed Precip Events Conditions
12:17 AM 46.0 °F 40.6 °F 41.0 °F 83% 29.74 in 10.0 mi WNW 11.5 mph - N/A   Overcast
12:53 AM 46.0 °F 41.9 °F 41.0 °F 83% 29.75 in 10.0 mi WNW 8.1 mph - N/A   Overcast
1:53 AM 45.0 °F - 42.1 °F 90% 29.74 in 10.0 mi Calm Calm - 0.00 in   Overcast
2:48 AM 46.4 °F 44.3 °F 42.8 °F 87% 29.72 in 10.0 mi West 4.6 mph - N/A   Overcast
2:53 AM 46.0 °F 43.9 °F 43.0 °F 89% 29.73 in 10.0 mi West 4.6 mph - N/A   Overcast
3:26 AM 45.0 °F 41.2 °F 42.1 °F 90% 29.72 in 10.0 mi West 6.9 mph - N/A   Overcast
3:53 AM 45.0 °F 41.2 °F 42.1 °F 90% 29.74 in 10.0 mi West 6.9 mph - N/A   Overcast
4:53 AM 45.0 °F 42.6 °F 42.1 °F 90% 29.73 in 10.0 mi West 4.6 mph - N/A   Overcast
5:53 AM 45.0 °F 41.8 °F 41.0 °F 86% 29.74 in 10.0 mi West 5.8 mph - N/A   Overcast
6:53 AM 45.0 °F 42.6 °F 41.0 °F 86% 29.75 in 10.0 mi West 4.6 mph - N/A   Overcast
7:35 AM 45.0 °F 41.8 °F 41.0 °F 86% 29.73 in 10.0 mi Variable 5.8 mph - N/A   Overcast
7:53 AM 45.0 °F 41.8 °F 41.0 °F 86% 29.75 in 10.0 mi Variable 5.8 mph - N/A   Overcast
8:53 AM 45.0 °F 41.2 °F 42.1 °F 90% 29.74 in 9.0 mi West 6.9 mph - 0.00 in   Overcast
9:13 AM 46.9 °F - 42.1 °F 83% 29.73 in 10.0 mi West 9.2 mph - N/A   Overcast
9:28 AM 46.9 °F - 41.0 °F 80% 29.72 in 10.0 mi West 6.9 mph - N/A   Overcast
9:53 AM 46.9 °F - 39.9 °F 77% 29.74 in 10.0 mi West 11.5 mph - N/A   Overcast
10:53 AM 46.9 °F - 37.9 °F 71% 29.74 in 10.0 mi West 9.2 mph - N/A   Overcast
11:53 AM 48.0 °F - 39.0 °F 71% 29.73 in 10.0 mi WSW 8.1 mph - N/A   Overcast
12:04 PM 48.0 °F - 39.9 °F 74% 29.72 in 10.0 mi SW 5.8 mph - N/A   Overcast
12:53 PM 48.9 °F - 37.0 °F 64% 29.73 in 10.0 mi West 8.1 mph - N/A   Overcast
1:53 PM 48.9 °F - 39.9 °F 71% 29.72 in 10.0 mi WSW 10.4 mph - 0.00 in Rain Light Rain
2:26 PM 50.0 °F - 39.9 °F 68% 29.70 in 10.0 mi SW 9.2 mph - 0.00 in   Overcast
2:33 PM 51.1 °F - 39.9 °F 66% 29.69 in 10.0 mi SW 9.2 mph - 0.00 in   Overcast
2:53 PM 51.1 °F - 41.0 °F 68% 29.70 in 10.0 mi SW 8.1 mph - 0.00 in   Overcast
3:53 PM 52.0 °F - 39.9 °F 63% 29.69 in 10.0 mi WSW 8.1 mph - N/A   Overcast
4:53 PM 50.0 °F - 39.9 °F 68% 29.69 in 10.0 mi WSW 6.9 mph - 0.00 in Rain Light Rain
5:53 PM 50.0 °F - 39.9 °F 68% 29.70 in 10.0 mi WSW 6.9 mph - 0.00 in   Overcast
7:53 PM 46.9 °F - 43.0 °F 86% 29.70 in 9.0 mi SSW 5.8 mph - 0.02 in Rain Light Rain
8:53 PM 46.0 °F 43.9 °F 44.1 °F 93% 29.69 in 10.0 mi South 4.6 mph - 0.01 in   Overcast
9:53 PM 46.0 °F 44.8 °F 44.1 °F 93% 29.68 in 10.0 mi SSE 3.5 mph - N/A   Overcast
10:53 PM 46.0 °F 43.1 °F 44.1 °F 93% 29.67 in 9.0 mi SSE 5.8 mph - 0.01 in Rain Light Rain
11:53 PM 46.0 °F - 45.0 °F 96% 29.65 in 9.0 mi Calm Calm - 0.00 in   Overcast